Location: Berg
(48.4333°N, 13.9167°E)
Time: 15:47:58
(UTC+00:00)

Cosmos 2082 Rocket - Pass Details

Date: 18 September 2020
Orbit: 834 x 853 km, 71.0° (Epoch: 23 October)

Event Time Altitude Azimuth Distance (km) Brightness Sun altitude
Rises 18:55:36 0° 336° (NNW) 3,393 6.1 -17.8°
Reaches altitude 10° 18:59:02 10° 357° (N) 2,456 5.0 -18.3°
Maximum altitude 19:02:32 17° 36° (NE) 2,028 4.1 -18.9°
Enters shadow 19:04:23 14° 59° (ENE) 2,155 4.0 -19.1°
